Regional Weather Roundup
Issued by NWS Jackson, KY

Home | Current Version | Previous Version | Graphics & Text | Print | Product List | Glossary On
Versions: 1 2 3 4 5 6 7 8 9 10 11 12 13 14 15 16 17 18 19 20 21 22 23 24 25 26 27 28 29 30 31 32 33 34 35 36 37 38 39 40 41 42 43 44 45 46 47 48 49 50
162
ASUS43 KJKL 041010
RWRJKL

EAST KENTUCKY HOURLY WEATHER ROUNDUP
NATIONAL WEATHER SERVICE JACKSON KY
500 AM EST SUN DEC 04 2016

NOTE: "FAIR" INDICATES FEW OR NO CLOUDS BELOW 12,000 FEET WITH
NO SIGNIFICANT WEATHER AND/OR OBSTRUCTIONS TO VISIBILITY.

* THESE REPORTS ARE NOT UNDER NWS QUALITY CONTROL AND MAY NOT
  REPORT WEATHER SUCH AS PRECIPITATION AND FOG.

KYZ079-080-083-085-087-088-110-112-115-119-120-041100
...EASTERN KENTUCKY...

CITY           SKY/WX    TMP DP  RH WIND       PRES   REMARKS
JACKSON        CLOUDY    36  28  73 CALM      30.19F
LONDON         LGT RAIN  37  31  78 E3        30.19F
SOMERSET*      LGT RAIN  36  36 100 CALM      30.21S
MONTICELLO*    LGT RAIN  38  36  92 VRB7      30.20F WCI  33
WILLIAMSBURG*  CLOUDY    37  37 100 E3        30.19S
MIDDLESBORO*   LGT RAIN  38  37  94 CALM      30.22F
HARLAN APT*    CLOUDY    36  34  93 CALM      30.20S
PIKE CO APT*   CLOUDY    36  28  74 CALM      30.19F
MOREHEAD APT*  CLOUDY    37  27  65 E5        30.21F WCI  34
ASHLAND*       CLOUDY    37  30  75 CALM      30.22F
$$

KYZ035-036-041-042-044-050-067-078-099-041100
...CENTRAL KENTUCKY...

CITY           SKY/WX    TMP DP  RH WIND       PRES   REMARKS
MT STERLING*   CLOUDY    36  32  87 SE3       30.21S
FLEMING/MASON* CLOUDY    34  30  85 E6        30.22S WCI  29
DANVILLE*      CLOUDY    36  32  87 CALM      30.20S
LEXINGTON      CLOUDY    39  29  67 E7        30.20S WCI  34
FRANKFORT      CLOUDY    39  29  67 E3        30.19S
LOUISVILLE     CLOUDY    41  29  62 E6        30.19F
LEBANON*       PTSUNNY   37  32  81 E3        30.18F
GLASGOW*       RAIN      38  38 100 E5        30.15F WCI  34
BOWLING GREEN  CLOUDY    40  37  89 E7        30.15F
$$

KYZ091>093-OHZ055-061-077-WVZ005-015-034-035-042-041100
...SOUTHERN OHIO/WEST VIRGINIA...

CITY           SKY/WX    TMP DP  RH WIND       PRES   REMARKS
COVINGTON      CLOUDY    37  31  78 E6        30.21S WCI  32
COLUMBUS       CLOUDY    34  30  85 E5        30.24F WCI  30
DAYTON         CLOUDY    34  27  75 SE5       30.23F WCI  30
WILMINGTON     CLOUDY    33  28  81 E5        30.22F WCI  29
HUNTINGTON     PTCLDY    35  29  78 E5        30.22F WCI  31
CHARLESTON     CLOUDY    33  30  88 CALM      30.24F
PINEVILLE*     CLOUDY    34  28  79 MISG      30.25F
BECKLEY        CLOUDY    32  25  75 SE6       30.18S WCI  26
BLUEFIELD      CLOUDY    30  24  78 E5        30.18R WCI  25
LOGAN CO APT*  CLOUDY    34  28  80 CALM      30.19F
$$

VAZ002-007-008-TNZ017-027-036-066-071-041100
...SOUTHWEST VIRGINIA/EAST TENNESSEE...

CITY           SKY/WX    TMP DP  RH WIND       PRES   REMARKS
WISE*          DRIZZLE   36  30  80 SW3       30.17F
JONESVILLE*    LGT RAIN  37  36  93 CALM      30.23S
ABINGDON*      RAIN      38  32  79 E3        30.20F
BRISTOL        LGT RAIN  38  35  89 CALM      30.21F
MORRISTOWN*    CLOUDY    37  36  93 E7        30.18S WCI  32
SEVIERVILLE*   CLOUDY    37  36  93 NE3       30.19S
KNOXVILLE      RAIN      39  37  92 N8        30.19R FOG     WCI  33
OAK RIDGE      LGT RAIN  40  37  89 NE3       30.22S FOG
CROSSVILLE     LGT RAIN  37  35  92 E6        30.14F FOG     WCI  32
NASHVILLE      LGT RAIN  41  39  93 E7        30.12F
$$

...KEY TO REMARKS...
VSB - VISIBILITY IN MILES
WCI - WIND CHILL INDEX
HX  - HEAT INDEX

$$




USA.gov is the U.S. government's official web portal to all federal, state and local government web resources and services.